User: anonymous   Login
Location: ???????????
(54.5822°N, 39.1075°E)
Time: 00:19:28
(UTC+00:00)
Language:

SL-24 R/B - Orbit

View from above orbital plane
View from above orbital plane
View from above satellite
View from above satellite

Ground track
Ground track

The orbit data is extracted from the following two-line orbital elements,

1 31123U 07012G   25189.62683866  .00000041  00000-0  29519-4 0  9995
2 31123  98.0573  63.7620 0309091 325.2245  53.0736 14.13402705939689
Epoch (UTC): 08 July 2025 15:02:38
Eccentricity: 0.0309091
inclination: 98.0573°
perigee height: 624 km
apogee height: 1071 km
right ascension of ascending node: 63.7620°
argument of perigee: 325.2245°
revolutions per day: 14.13402705
mean anomaly at epoch: 53.0736°
orbit number at epoch: 93968

The dashed part of the orbit path shows where the satellite is in the earth's shadow,  

DLR